This is the latest recevied weather packets stored in our database for station/object YO8RBY-2. If no packets are shown the sender has not sent any weather packets the latest 10 day(s).
| Time | Temp. | Humidity | Pressure | Rain* | Wind** | Luminosity | Snow |
|---|---|---|---|---|---|---|---|
| 1788505335 | 25.56° C | 39% | 975 hPa | - | - | 0 W/m² | - |
| 1788503510 | 25° C | 41% | 975 hPa | - | - | 0 W/m² | - |
| 1788501686 | 22.78° C | 45% | 975 hPa | - | - | 0 W/m² | - |
| 1788499861 | 22.78° C | 45% | 975 hPa | - | - | 0 W/m² | - |
| 1788498036 | 21.67° C | 48% | 975 hPa | - | - | 0 W/m² | - |
| 1788496212 | 21.11° C | 49% | 975 hPa | - | - | 0 W/m² | - |
| 1788494387 | 20° C | 51% | 975 hPa | - | - | 0 W/m² | - |
| 1788492563 | 20° C | 51% | 975 hPa | - | - | 0 W/m² | - |
| 1788490739 | 19.44° C | 54% | 975 hPa | - | - | 0 W/m² | - |
| 1788488915 | 20° C | 51% | 975 hPa | - | - | 0 W/m² | - |
| 1788487091 | 20° C | 54% | 975 hPa | - | - | 0 W/m² | - |
| 1788485267 | 18.89° C | 58% | 975 hPa | - | - | 0 W/m² | - |
| 1788483442 | 20° C | 56% | 975 hPa | - | - | 0 W/m² | - |
| 1788481618 | 19.44° C | 57% | 976 hPa | - | - | 0 W/m² | - |
| 1788479794 | 18.33° C | 60% | 975 hPa | - | - | 0 W/m² | - |
| 1788477970 | 19.44° C | 57% | 975 hPa | - | - | 0 W/m² | - |
| 1788476146 | 19.44° C | 57% | 975 hPa | - | - | 0 W/m² | - |
| 1788474322 | 19.44° C | 58% | 975 hPa | - | - | 0 W/m² | - |
| 1788472498 | 19.44° C | 58% | 975 hPa | - | - | 0 W/m² | - |
| 1788470673 | 19.44° C | 58% | 975 hPa | - | - | 0 W/m² | - |
| 1788468849 | 19.44° C | 59% | 976 hPa | - | - | 0 W/m² | - |
| 1788467025 | 18.89° C | 61% | 976 hPa | - | - | 0 W/m² | - |
| 1788465201 | 20° C | 58% | 976 hPa | - | - | 0 W/m² | - |
| 1788463377 | 19.44° C | 63% | 976 hPa | - | - | 0 W/m² | - |
| 1788461553 | 20° C | 63% | 976 hPa | - | - | 0 W/m² | - |
* Rain since midnight (hover to see other rain measurements)
** Current wind speed in m/s (hover to see current wind gust speed)